Weather History for KWWD - December, 2012

Change the Weather History Date:

Sunday, December 9, 2012

  Actual Average (KGED) Record (KGED)
Temperature  
Mean Temperature 50 °F 41 °F  
Max Temperature 53 °F 50 °F 71 °F (1978)
Min Temperature 48 °F 32 °F 10 °F (1976)
Degree Days  
Heating Degree Days 14 24  
Month to date heating degree days 204  
Since 1 July heating degree days 988  
Cooling Degree Days 0 0  
Month to date cooling degree days 0  
Year to date cooling degree days 1196  
Moisture  
Dew Point 48 °F    
Average Humidity 92    
Maximum Humidity 100    
Minimum Humidity 82    
Precipitation  
Precipitation 0.00 in 0.11 in 1.93 in (2009)
Month to date precipitation 1.05  
Year to date precipitation 41.53  
Sea Level Pressure  
Sea Level Pressure 30.11 in    
Wind  
Wind Speed 6 mph (ENE)    
Max Wind Speed 17 mph    
Max Gust Speed 25 mph    
Visibility 3 miles    
Events      
T = Trace of Precipitation, MM = Missing Value Source: NWS Daily Summary

Daily Weather History Graph

Daily Weather History Graph

Search for Another Location

Airport or City:

Trip Planner

Search our weather history database for the weather conditions in past years. The results will help you decide how hot, cold, wet, or windy it might be!

Date:

Astronomy

Dec. 09, 2012 Rise Set
Actual Time 7:07 AM EST 4:37 PM EST
Civil Twilight 6:37 AM EST 5:07 PM EST
Nautical Twilight 6:03 AM EST 5:40 PM EST
Astronomical Twilight 5:31 AM EST 6:12 PM EST
Moon 2:38 AM EST (12/9) 1:41 PM EST (12/9)
Length of Visible Light 10h 29m
Length of Day
9h 29m
Waning Crescent, 19% of the Moon is Illuminated
Dec 9
Waning Crescent
Dec 13
New
Dec 20
First Quarter
Dec 28
Full
Jan 4
Last Quarter

Hourly Weather History & Observations

Time (EST) Temp. Dew Point Humidity Pressure Visibility Wind Dir Wind Speed Gust Speed Precip Events Conditions
12:15 AM 48.2 °F 46.4 °F 93% 30.04 in 0.2 mi WSW 3.5 mph - N/A   Overcast
12:35 AM 48.2 °F 46.4 °F 93% 30.05 in 0.5 mi Calm Calm - N/A   Overcast
12:55 AM 48.2 °F 46.4 °F 93% 30.05 in 0.8 mi Calm Calm - N/A   Overcast
1:15 AM 48.2 °F 46.4 °F 93% 30.05 in 0.5 mi Calm Calm - N/A   Overcast
1:35 AM 48.2 °F 46.4 °F 93% 30.05 in 0.2 mi South 3.5 mph - N/A   Overcast
1:55 AM 48.2 °F 46.4 °F 93% 30.06 in 0.2 mi South 3.5 mph - N/A   Overcast
2:15 AM 48.2 °F 46.4 °F 93% 30.06 in 0.5 mi Calm Calm - N/A   Overcast
2:35 AM 48.2 °F 46.4 °F 93% 30.07 in 0.2 mi South 4.6 mph - N/A   Overcast
2:55 AM 48.2 °F 46.4 °F 93% 30.07 in 0.2 mi Calm Calm - N/A   Overcast
3:15 AM 48.2 °F 46.4 °F 93% 30.07 in 0.2 mi Calm Calm - N/A   Overcast
3:35 AM 48.2 °F 46.4 °F 93% 30.08 in 0.2 mi North 3.5 mph - N/A   Overcast
3:55 AM 48.2 °F 46.4 °F 93% 30.08 in 0.2 mi North 3.5 mph - N/A   Overcast
4:15 AM 48.2 °F 46.4 °F 93% 30.08 in 0.5 mi North 3.5 mph - N/A   Overcast
4:35 AM 48.2 °F 46.4 °F 93% 30.08 in 0.2 mi Calm Calm - N/A   Overcast
5:15 AM 48.2 °F 46.4 °F 93% 30.11 in 0.2 mi Calm Calm - N/A   Overcast
5:35 AM 48.2 °F 46.4 °F 93% 30.11 in 0.5 mi Calm Calm - N/A   Overcast
5:55 AM 48.2 °F 46.4 °F 93% 30.11 in 0.5 mi Calm Calm - N/A   Overcast
6:15 AM 48.2 °F 46.4 °F 93% 30.12 in 0.2 mi Calm Calm - N/A   Overcast
6:35 AM 48.2 °F 46.4 °F 93% 30.13 in 0.2 mi Calm Calm - N/A   Overcast
6:55 AM 48.2 °F 46.4 °F 93% 30.13 in 0.5 mi ENE 3.5 mph - N/A   Overcast
7:15 AM 48.2 °F 46.4 °F 93% 30.14 in 0.2 mi NNE 5.8 mph - N/A   Overcast
7:35 AM 48.2 °F 46.4 °F 93% 30.15 in 0.2 mi NNE 6.9 mph - N/A   Overcast
7:55 AM 48.2 °F 46.4 °F 93% 30.15 in 0.5 mi NNE 6.9 mph - N/A   Overcast
8:15 AM 48.2 °F 46.4 °F 93% 30.15 in 1.5 mi NNE 8.1 mph - N/A   Overcast
8:35 AM 50.0 °F 46.4 °F 87% 30.17 in 4.0 mi NNE 8.1 mph - N/A   Overcast
8:55 AM 50.0 °F 48.2 °F 94% 30.18 in 5.0 mi NE 6.9 mph - N/A   Overcast
9:15 AM 50.0 °F 48.2 °F 94% 30.19 in 5.0 mi NE 8.1 mph - N/A   Overcast
9:35 AM 50.0 °F 48.2 °F 94% 30.20 in 5.0 mi NNE 9.2 mph - N/A   Overcast
9:55 AM 51.8 °F 48.2 °F 88% 30.19 in 6.0 mi NE 11.5 mph 17.3 mph N/A   Overcast
10:15 AM - - N/A% 30.19 in 8.0 mi NE 15.0 mph 18.4 mph N/A   Overcast
10:35 AM 50.0 °F 46.4 °F 87% 30.20 in 8.0 mi NE 15.0 mph 21.9 mph N/A   Overcast
10:55 AM 51.8 °F 46.4 °F 82% 30.19 in 7.0 mi NE 12.7 mph - N/A   Overcast
11:15 AM 51.8 °F 46.4 °F 82% 30.18 in 7.0 mi NE 9.2 mph 18.4 mph N/A   Overcast
11:35 AM - - N/A% 30.16 in 7.0 mi ENE 10.4 mph 20.7 mph N/A   Overcast
11:55 AM - - N/A% 30.16 in 7.0 mi ENE 16.1 mph 23.0 mph N/A   Overcast
12:15 PM - - N/A% 30.15 in 6.0 mi ENE 13.8 mph 19.6 mph N/A   Overcast
12:35 PM - - N/A% 30.14 in 5.0 mi NE 16.1 mph 23.0 mph N/A   Overcast
12:55 PM - - N/A% 30.14 in 6.0 mi ENE 13.8 mph 25.3 mph N/A   Overcast
1:15 PM - - N/A% 30.13 in 7.0 mi ENE 12.7 mph 23.0 mph N/A   Overcast
1:35 PM - - N/A% 30.13 in 9.0 mi ENE 13.8 mph 20.7 mph N/A   Overcast
1:55 PM - - N/A% 30.12 in 7.0 mi ENE 16.1 mph 21.9 mph N/A   Overcast
2:15 PM - - N/A% 30.12 in 8.0 mi ENE 17.3 mph 24.2 mph N/A   Overcast
2:35 PM - - N/A% 30.12 in 7.0 mi ENE 16.1 mph 21.9 mph N/A   Overcast
2:55 PM - - N/A% 30.13 in 6.0 mi ENE 12.7 mph 23.0 mph N/A   Overcast
3:15 PM - - N/A% 30.13 in 6.0 mi ENE 13.8 mph 21.9 mph N/A   Overcast
3:35 PM - - N/A% 30.13 in 7.0 mi ENE 15.0 mph 20.7 mph N/A   Overcast
3:55 PM 48.2 °F 46.4 °F 93% 30.14 in 9.0 mi ENE 9.2 mph - N/A   Overcast
4:15 PM 48.2 °F 46.4 °F 93% 30.13 in 4.0 mi ENE 9.2 mph - N/A   Overcast
4:35 PM 48.2 °F 46.4 °F 93% 30.13 in 2.0 mi ENE 11.5 mph 18.4 mph N/A   Overcast
4:55 PM 48.2 °F 46.4 °F 93% 30.13 in 3.0 mi NE 10.4 mph - N/A   Overcast
5:15 PM 48.2 °F 46.4 °F 93% 30.13 in 3.0 mi NE 10.4 mph - N/A   Overcast
5:35 PM 48.2 °F 46.4 °F 93% 30.12 in 5.0 mi NE 9.2 mph 17.3 mph N/A   Overcast
5:55 PM 50.0 °F 46.4 °F 87% 30.12 in 5.0 mi NE 9.2 mph - N/A   Overcast
6:15 PM 50.0 °F 46.4 °F 87% 30.12 in 4.0 mi ENE 8.1 mph - N/A   Overcast
6:35 PM 50.0 °F 46.4 °F 87% 30.11 in 4.0 mi ENE 9.2 mph - N/A   Overcast
6:55 PM 51.8 °F 48.2 °F 88% 30.11 in 5.0 mi NE 10.4 mph - N/A   Overcast
7:15 PM 51.8 °F 48.2 °F 88% 30.10 in 5.0 mi NE 8.1 mph - N/A   Overcast
7:35 PM 51.8 °F 48.2 °F 88% 30.10 in 4.0 mi SSE 5.8 mph - N/A   Overcast
7:55 PM 51.8 °F 50.0 °F 94% 30.08 in 5.0 mi East 6.9 mph - N/A   Overcast
8:15 PM 51.8 °F 50.0 °F 94% 30.08 in 3.0 mi East 4.6 mph - N/A   Overcast
8:35 PM 51.8 °F 50.0 °F 94% 30.07 in 2.5 mi ESE 6.9 mph - N/A   Overcast
8:55 PM 51.8 °F 50.0 °F 94% 30.07 in 3.0 mi Calm Calm - N/A   Overcast
9:15 PM 51.8 °F 51.8 °F 100% 30.06 in 2.5 mi SE 4.6 mph - N/A   Overcast
9:35 PM 53.6 °F 50.0 °F 88% 30.06 in 2.5 mi SSE 3.5 mph - N/A   Overcast
9:55 PM 53.6 °F 51.8 °F 94% 30.05 in 2.0 mi SSE 6.9 mph - N/A   Overcast
10:15 PM 53.6 °F 51.8 °F 94% 30.04 in 2.5 mi SSE 8.1 mph - N/A   Overcast
10:35 PM 53.6 °F 51.8 °F 94% 30.03 in 3.0 mi South 6.9 mph - N/A   Overcast
10:55 PM 53.6 °F 51.8 °F 94% 30.03 in 2.5 mi South 6.9 mph - N/A   Overcast
11:15 PM 53.6 °F 51.8 °F 94% 30.02 in 2.0 mi South 6.9 mph - N/A   Overcast
11:35 PM 53.6 °F 51.8 °F 94% 30.01 in 1.2 mi South 6.9 mph - N/A   Overcast
11:55 PM 53.6 °F 51.8 °F 94% 30.00 in 1.0 mi South 6.9 mph - N/A   Overcast